Location: *
(46.3500°N, 10.9000°E)
Time: 22:50:13
(UTC+00:00)

A-11 Canister half - Pass Details

Date: 20 April 2021
Orbit: 1526 x 1682 km, 47.3° (Epoch: 13 May)

Event Time Altitude Azimuth Distance (km) Brightness Sun altitude
Rises 19:30:42 0° 288° (WNW) 4,934 13.3 -13.2°
Reaches altitude 10° 19:33:53 10° 287° (WNW) 3,949 12.4 -13.7°
Maximum altitude 19:43:58 71° 206° (SSW) 1,759 9.2 -15.1°
Enters shadow 19:51:19 21° 128° (SE) 3,116 9.9 -16.1°
Drops below altitude 10° 19:53:54 10° 126° (SE) 3,890 - -16.5°
Sets 19:57:01 0° 124° (SE) 4,858 - -16.9°
